Flag for U.S.A. Weather past 2 weeks in Sterling Heights, Michigan, U.S.A.

Now
33 °F

Mostly cloudy.


Feels Like: 25 °F
Forecast: 29 / 34 °F
Wind: 10 mph from West

Location: Selfridge Air National Guard Base

Current Time: Dec 18, 2014 at 1:41:25 PM

Latest Report: Dec 18, 2014 at 12:55 PM


Visibility: 7 mi

Pressure: 30.17 "Hg

Humidity: 81%

Dew point: 28 °F

Location of Sterling HeightsLocation

Historic Weather in Sterling Heights — Graph

°F

Sterling Heights temperature yesterday

Maximum temperature yesterday: 38 °F (at 12:58 AM)
Minimum temperature yesterday: 28 °F (at 9:58 PM)
Average temperature yesterday: 32 °F

Past Weeks' High & Low Weather Summary

 TemperatureHumidityPressure
High50 °F (Dec 14, 11:55 AM)100% (Dec 6, 12:02 PM)30.74 "Hg (Dec 6, 12:02 PM)
Low20 °F (Dec 7, 6:58 AM)24% (Dec 11, 1:55 PM)29.63 "Hg (Dec 16, 12:59 PM)
Average35 °F85%30.17 "Hg
* Reported Dec 3 11:55 AM — Dec 18 11:55 AM, Sterling Heights, Weather by CustomWeather, © 2014

Note: Actual official high and low records may vary slightly from our data, if they occured in-between our weather recording intervals... More about our weather records

Advertising

Sterling Heights weather history for previous 24 hours

 ConditionsComfort  
Time TempWeatherWind HumidityBarometerVisibility
11:55 AM
Dec 18
33 °FLight snow. More clouds than sun.8 mph87%30.21 "Hg7 mi
10:55 AM31 °FLight snow. More clouds than sun.7 mph97%30.23 "Hg7 mi
9:55 AM31 °FLight snow. Overcast.6 mph100%30.21 "Hg8 mi
8:55 AM30 °FScattered showers. Mostly cloudy.7 mph99%30.20 "Hg10 mi
7:55 AM30 °FLight snow. Mostly cloudy.7 mph99%30.21 "Hg12 mi
6:58 AM30 °FOvercast.6 mph100%30.18 "Hg10 mi
5:58 AM30 °FOvercast.7 mph91%30.18 "Hg10 mi
4:58 AM30 °FOvercast.8 mph90%30.18 "Hg10 mi
3:58 AM29 °FOvercast.10 mph90%30.17 "Hg10 mi
2:58 AM29 °FOvercast.12 mph86%30.18 "Hg10 mi
1:58 AM30 °FOvercast.13 mph78%30.17 "Hg10 mi
12:58 AM29 °FOvercast.12 mph76%30.16 "Hg10 mi
11:58 PM
Dec 17
29 °FOvercast.10 mph71%30.14 "Hg10 mi
10:58 PM28 °FOvercast.13 mph68%30.13 "Hg10 mi
9:58 PM28 °FPassing clouds.14 mph68%30.13 "Hg10 mi
8:58 PM28 °FPassing clouds.12 mph67%30.12 "Hg10 mi
8:04 PM28 °FOvercast.14 mph69%30.10 "Hg10 mi
7:55 PM29 °FMostly cloudy.12 mph68%30.14 "Hg12 mi
6:55 PM30 °FLight snow. Mostly cloudy.17 mph69%30.13 "Hg10 mi
5:55 PM30 °FLight snow. Mostly cloudy.14 mph68%30.10 "Hg10 mi
4:55 PM30 °FScattered showers. Overcast.12 mph73%30.08 "Hg12 mi
3:55 PM31 °FOvercast.18 mph67%30.07 "Hg12 mi
2:55 PM31 °FOvercast.17 mph69%30.06 "Hg12 mi
1:55 PM31 °FOvercast.22 mph72%30.06 "Hg12 mi
Weather by CustomWeather, © 2014

See weather overviewHow to use our weather pages